"Period start","avg(HW err(1)/warn(2) (#))","avg(Visibility (m))","avg(Weather code (#))","avg(Precip intensity (mm/h))","min(HW err(1)/warn(2) (#))","max(HW err(1)/warn(2) (#))","std(HW err(1)/warn(2) (#))","med(HW err(1)/warn(2) (#))","min(Visibility (m))","max(Visibility (m))","std(Visibility (m))","med(Visibility (m))","min(Weather code (#))","max(Weather code (#))","std(Weather code (#))","med(Weather code (#))","min(Precip intensity (mm/h))","max(Precip intensity (mm/h))","std(Precip intensity (mm/h))","med(Precip intensity (mm/h))"
2014-03-24 00:00:00,2,30246,36,0.01,2,2,0,2,12601,50000,10495,27424,0,71,36,36,0.00,0.15,0.05,0.00
2014-03-24 00:10:00,2,27052,0,0.00,2,2,0,2,20674,36465,5340,25426,0,0,0,0,0.00,0.00,0.00,0.00
2014-03-24 00:20:00,2,26619,18,0.00,2,2,0,2,12170,39218,8145,28498,0,71,29,0,0.00,0.00,0.00,0.00
2014-03-24 00:30:00,2,26666,0,0.00,2,2,0,2,19252,34336,4585,25593,0,0,0,0,0.00,0.00,0.00,0.00
2014-03-24 00:40:00,2,27658,0,0.00,2,2,0,2,21246,36648,4957,27112,0,0,0,0,0.00,0.00,0.00,0.00
2014-03-24 00:50:00,2,32314,0,0.00,2,2,0,2,26306,41024,5077,31486,0,0,0,0,0.00,0.00,0.00,0.00
2014-03-24 01:00:00,2,29950,0,0.00,2,2,0,2,19984,40845,6372,28621,0,0,0,0,0.00,0.00,0.00,0.00
2014-03-24 01:10:00,2,29616,0,0.00,2,2,0,2,17113,48707,8567,29904,0,0,0,0,0.00,0.00,0.00,0.00
2014-03-24 01:20:00,2,27788,0,0.00,2,2,0,2,16255,36700,5472,29586,0,0,0,0,0.00,0.00,0.00,0.00
2014-03-24 01:30:00,2,31684,0,0.00,2,2,0,2,22567,44014,6135,29202,0,0,0,0,0.00,0.00,0.00,0.00
2014-03-24 01:40:00,2,25852,7,0.00,2,2,0,2,15518,36219,8559,28116,0,71,21,0,0.00,0.00,0.00,0.00
2014-03-24 01:50:00,2,24415,14,0.01,2,2,0,2,17135,32486,4818,24771,0,71,28,0,0.00,0.10,0.03,0.00
2014-03-24 02:00:00,2,27592,0,0.00,2,2,0,2,14732,43312,8827,24559,0,0,0,0,0.00,0.00,0.00,0.00
2014-03-24 02:10:00,2,27605,0,0.00,2,2,0,2,2138,48856,14549,29706,0,0,0,0,0.00,0.00,0.00,0.00
2014-03-24 02:20:00,2,30573,0,0.00,2,2,0,2,17275,45271,9007,31116,0,0,0,0,0.00,0.00,0.00,0.00
2014-03-24 02:30:00,2,32632,0,0.00,2,2,0,2,20848,45359,6575,32962,0,0,0,0,0.00,0.00,0.00,0.00
2014-03-24 02:40:00,2,35672,0,0.00,2,2,0,2,16178,50000,10737,34506,0,0,0,0,0.00,0.00,0.00,0.00
2014-03-24 02:50:00,2,29481,0,0.00,2,2,0,2,19807,34800,4380,30647,0,0,0,0,0.00,0.00,0.00,0.00
2014-03-24 03:00:00,2,25273,0,0.00,2,2,0,2,16754,38420,5891,25794,0,0,0,0,0.00,0.00,0.00,0.00
2014-03-24 03:10:00,2,25570,0,0.00,2,2,0,2,16410,32336,5166,25474,0,0,0,0,0.00,0.00,0.00,0.00
2014-03-24 03:20:00,2,29552,0,0.00,2,2,0,2,22506,42450,5944,28408,0,0,0,0,0.00,0.00,0.00,0.00
2014-03-24 03:30:00,2,29477,0,0.00,2,2,0,2,12944,50000,12317,27700,0,0,0,0,0.00,0.00,0.00,0.00
2014-03-24 03:40:00,2,27506,0,0.00,2,2,0,2,21710,35060,4615,26586,0,0,0,0,0.00,0.00,0.00,0.00
2014-03-24 03:50:00,2,26971,0,0.00,2,2,0,2,11882,47077,10576,24843,0,0,0,0,0.00,0.00,0.00,0.00
2014-03-24 04:00:00,2,26722,0,0.00,2,2,0,2,14164,43146,9336,24966,0,0,0,0,0.00,0.00,0.00,0.00
2014-03-24 04:10:00,2,32106,0,0.00,2,2,0,2,21410,50000,9088,27382,0,0,0,0,0.00,0.00,0.00,0.00
2014-03-24 04:20:00,2,36147,0,0.00,2,2,0,2,17027,50000,10959,39522,0,0,0,0,0.00,0.00,0.00,0.00
2014-03-24 04:30:00,2,31141,0,0.00,2,2,0,2,20118,50000,8581,28378,0,0,0,0,0.00,0.00,0.00,0.00
2014-03-24 04:40:00,2,24867,0,0.00,2,2,0,2,13837,37415,6905,23650,0,0,0,0,0.00,0.00,0.00,0.00
2014-03-24 04:50:00,2,33080,0,0.00,2,2,0,2,20190,43502,8855,36004,0,0,0,0,0.00,0.00,0.00,0.00
2014-03-24 05:00:00,2,23856,0,0.00,2,2,0,2,11481,50000,10545,21072,0,0,0,0,0.00,0.00,0.00,0.00
2014-03-24 05:10:00,2,27829,0,0.00,2,2,0,2,18522,39838,5924,27779,0,0,0,0,0.00,0.00,0.00,0.00
2014-03-24 05:20:00,2,23629,0,0.00,2,2,0,2,11819,42235,8152,22538,0,0,0,0,0.00,0.00,0.00,0.00
2014-03-24 05:30:00,2,27590,0,0.00,2,2,0,2,19067,35865,5433,28227,0,0,0,0,0.00,0.00,0.00,0.00
2014-03-24 05:40:00,2,30937,0,0.00,2,2,0,2,14808,39914,8215,33092,0,0,0,0,0.00,0.00,0.00,0.00
2014-03-24 05:50:00,2,32303,0,0.00,2,2,0,2,19779,45914,7309,31970,0,0,0,0,0.00,0.00,0.00,0.00
2014-03-24 06:00:00,2,26363,0,0.00,2,2,0,2,13803,38369,8020,25769,0,0,0,0,0.00,0.00,0.00,0.00
2014-03-24 06:10:00,2,34474,0,0.00,2,2,0,2,22198,46145,6752,35794,0,0,0,0,0.00,0.00,0.00,0.00
2014-03-24 06:20:00,2,35877,0,0.00,2,2,0,2,21628,45312,7512,38543,0,0,0,0,0.00,0.00,0.00,0.00
2014-03-24 06:30:00,2,29508,0,0.00,2,2,0,2,20127,43236,7322,27240,0,0,0,0,0.00,0.00,0.00,0.00
2014-03-24 06:40:00,2,30872,0,0.00,2,2,0,2,20228,50000,8832,30496,0,0,0,0,0.00,0.00,0.00,0.00
2014-03-24 06:50:00,2,27354,0,0.00,2,2,0,2,16481,39299,6865,26995,0,0,0,0,0.00,0.00,0.00,0.00
2014-03-24 07:00:00,2,24775,0,0.00,2,2,0,2,16782,42330,6898,22863,0,0,0,0,0.00,0.00,0.00,0.00
2014-03-24 07:10:00,2,34847,0,0.00,2,2,0,2,28646,44375,5087,33952,0,0,0,0,0.00,0.00,0.00,0.00
2014-03-24 07:20:00,2,40754,0,0.00,2,2,0,2,26257,50000,6632,39996,0,0,0,0,0.00,0.00,0.00,0.00
2014-03-24 07:30:00,2,27171,0,0.00,2,2,0,2,15084,33970,4882,27021,0,0,0,0,0.00,0.00,0.00,0.00
2014-03-24 07:40:00,2,33004,0,0.00,2,2,0,2,21280,46732,7600,32157,0,0,0,0,0.00,0.00,0.00,0.00
2014-03-24 07:50:00,2,31240,0,0.00,2,2,0,2,22440,44956,7276,28803,0,0,0,0,0.00,0.00,0.00,0.00
2014-03-24 08:00:00,2,27479,0,0.00,2,2,0,2,19835,36851,5654,25640,0,0,0,0,0.00,0.00,0.00,0.00
2014-03-24 08:10:00,2,29910,0,0.00,2,2,0,2,19953,39647,5315,29416,0,0,0,0,0.00,0.00,0.00,0.00
2014-03-24 08:20:00,2,22210,0,0.00,2,2,0,2,16066,29134,4594,22076,0,0,0,0,0.00,0.00,0.00,0.00
2014-03-24 08:30:00,2,28935,0,0.00,2,2,0,2,22836,35585,4526,28338,0,0,0,0,0.00,0.00,0.00,0.00
2014-03-24 08:40:00,2,29100,0,0.00,2,2,0,2,24502,38840,4098,27176,0,0,0,0,0.00,0.00,0.00,0.00
2014-03-24 08:50:00,2,27452,0,0.00,2,2,0,2,13681,41562,8529,27238,0,0,0,0,0.00,0.00,0.00,0.00
2014-03-24 09:00:00,2,10746,0,0.00,2,2,0,2,9556,13679,1290,10196,0,0,0,0,0.00,0.00,0.00,0.00
2014-03-24 09:10:00,2,11038,0,0.00,2,2,0,2,10004,13880,1088,10772,0,0,0,0,0.00,0.00,0.00,0.00
2014-03-24 09:20:00,2,21858,0,0.00,2,2,0,2,12593,26320,4314,23352,0,0,0,0,0.00,0.00,0.00,0.00
2014-03-24 09:30:00,2,19862,0,0.00,2,2,0,2,16587,23221,1692,19992,0,0,0,0,0.00,0.00,0.00,0.00
2014-03-24 09:40:00,2,20332,0,0.00,2,2,0,2,17750,24469,1893,20720,0,0,0,0,0.00,0.00,0.00,0.00
2014-03-24 09:50:00,2,20132,0,0.00,2,2,0,2,17174,22777,1562,19908,0,0,0,0,0.00,0.00,0.00,0.00
2014-03-24 10:00:00,2,16609,0,0.00,2,2,0,2,13053,19636,1750,16432,0,0,0,0,0.00,0.00,0.00,0.00
2014-03-24 10:10:00,2,12923,0,0.00,2,2,0,2,11084,15625,1594,12388,0,0,0,0,0.00,0.00,0.00,0.00
2014-03-24 10:20:00,2,12358,0,0.00,2,2,0,2,11080,13059,636,12560,0,0,0,0,0.00,0.00,0.00,0.00
2014-03-24 10:30:00,2,11924,0,0.00,2,2,0,2,10245,13128,845,11798,0,0,0,0,0.00,0.00,0.00,0.00
2014-03-24 10:40:00,2,12448,0,0.00,2,2,0,2,9880,14278,1564,12849,0,0,0,0,0.00,0.00,0.00,0.00
2014-03-24 10:50:00,2,9227,0,0.00,2,2,0,2,7861,11105,815,9178,0,0,0,0,0.00,0.00,0.00,0.00
2014-03-24 11:00:00,2,11472,0,0.00,2,2,0,2,9301,13288,1230,11294,0,0,0,0,0.00,0.00,0.00,0.00
2014-03-24 11:10:00,2,14267,0,0.00,2,2,0,2,11656,17245,1730,13836,0,0,0,0,0.00,0.00,0.00,0.00
2014-03-24 11:20:00,2,10095,0,0.00,2,2,0,2,4177,15520,3353,9631,0,0,0,0,0.00,0.00,0.00,0.00
2014-03-24 11:30:00,2,3639,10,0.00,2,2,0,2,2912,5727,778,3457,10,10,0,10,0.00,0.00,0.00,0.00
2014-03-24 11:40:00,2,6644,43,0.00,2,2,0,2,4798,9100,1644,6298,10,78,33,40,0.00,0.00,0.00,0.00
2014-03-24 11:50:00,2,8609,10,0.00,2,2,0,2,6755,9755,1003,8758,10,10,0,10,0.00,0.00,0.00,0.00
2014-03-24 12:00:00,2,11140,47,0.01,2,2,0,2,9383,13250,1058,10975,0,78,32,71,0.00,0.05,0.02,0.00
2014-03-24 12:10:00,2,14285,28,0.04,2,2,0,2,10523,16693,1825,14663,0,71,35,0,0.00,0.40,0.12,0.00
2014-03-24 12:20:00,2,13751,0,0.00,2,2,0,2,11328,16778,1513,13788,0,0,0,0,0.00,0.00,0.00,0.00
2014-03-24 12:30:00,2,16670,0,0.00,2,2,0,2,13927,20120,2085,16732,0,0,0,0,0.00,0.00,0.00,0.00
2014-03-24 12:40:00,2,13053,0,0.00,2,2,0,2,11649,15801,1405,12437,0,0,0,0,0.00,0.00,0.00,0.00
2014-03-24 12:50:00,2,14527,0,0.00,2,2,0,2,10605,16686,1743,15002,0,0,0,0,0.00,0.00,0.00,0.00
2014-03-24 13:00:00,2,11454,76,0.01,2,2,0,2,8543,13750,1838,11870,71,78,3,78,0.00,0.05,0.02,0.00
2014-03-24 13:10:00,2,12752,39,0.00,2,2,0,2,8524,17180,2631,12554,0,78,39,39,0.00,0.00,0.00,0.00
2014-03-24 13:20:00,2,16627,0,0.00,2,2,0,2,14862,18662,1193,16724,0,0,0,0,0.00,0.00,0.00,0.00
2014-03-24 13:30:00,2,11035,22,0.01,2,2,0,2,5569,16831,3776,11737,0,78,34,0,0.00,0.05,0.02,0.00
2014-03-24 13:40:00,2,8260,75,0.07,2,2,0,2,5073,11697,1963,8124,71,78,3,77,0.00,0.20,0.06,0.05
2014-03-24 13:50:00,2,8601,77,0.00,2,2,0,2,2198,12489,2888,9076,71,78,2,78,0.00,0.00,0.00,0.00
2014-03-24 14:00:00,2,3832,30,0.00,2,2,0,2,478,9409,2997,3418,10,78,30,10,0.00,0.00,0.00,0.00
2014-03-24 14:10:00,2,213,76,0.04,2,2,0,2,197,250,15,212,71,77,2,77,0.00,0.05,0.02,0.05
2014-03-24 14:20:00,2,225,77,0.05,2,2,0,2,165,412,68,211,77,77,0,77,0.00,0.10,0.03,0.05
2014-03-24 14:30:00,2,175,77,0.04,2,2,0,2,163,192,9,176,77,77,0,77,0.00,0.05,0.02,0.05
2014-03-24 14:40:00,2,180,74,0.03,2,2,0,2,172,194,8,177,71,77,3,74,0.00,0.15,0.04,0.03
2014-03-24 14:50:00,2,178,77,0.06,2,2,0,2,162,195,9,176,77,77,0,77,0.00,0.10,0.04,0.05
2014-03-24 15:00:00,2,181,63,0.03,2,2,0,2,170,190,7,182,34,77,19,74,0.00,0.10,0.03,0.00
2014-03-24 15:10:00,2,167,75,0.12,2,2,0,2,152,190,12,168,71,77,3,77,0.00,0.50,0.14,0.10
2014-03-24 15:20:00,2,158,56,0.05,2,2,0,2,144,169,8,156,33,71,19,71,0.00,0.15,0.05,0.05
2014-03-24 15:30:00,2,179,65,0.09,2,2,0,2,166,193,8,180,41,71,12,71,0.00,0.35,0.10,0.05
2014-03-24 15:40:00,2,155,76,0.16,2,2,0,2,144,168,8,154,71,77,2,77,0.05,0.60,0.15,0.10
2014-03-24 15:50:00,2,172,71,0.09,2,2,0,2,151,208,20,165,71,71,0,71,0.05,0.25,0.06,0.08
2014-03-24 16:00:00,2,163,71,0.16,2,2,0,2,144,201,22,151,71,71,0,71,0.00,0.65,0.18,0.08
2014-03-24 16:10:00,2,150,73,0.07,2,2,0,2,141,163,7,149,71,77,3,71,0.00,0.15,0.04,0.05
2014-03-24 16:20:00,2,171,76,0.08,2,2,0,2,145,190,12,171,71,77,2,77,0.00,0.25,0.07,0.08
2014-03-24 16:30:00,2,181,71,0.35,2,2,0,2,151,203,17,182,71,71,0,71,0.00,1.05,0.32,0.27
2014-03-24 16:40:00,2,147,65,0.31,2,2,0,2,139,158,6,145,33,77,16,71,0.00,0.85,0.30,0.25
2014-03-24 16:50:00,2,139,67,0.42,2,2,0,2,127,159,9,137,33,71,11,71,0.00,1.40,0.51,0.23
2014-03-24 17:00:00,2,150,71,0.52,2,2,0,2,138,163,8,150,71,71,0,71,0.10,1.35,0.41,0.35
2014-03-24 17:10:00,2,160,71,0.52,2,2,0,2,140,195,19,153,71,71,0,71,0.10,1.10,0.30,0.45
2014-03-24 17:20:00,2,210,71,0.32,2,2,0,2,184,239,19,211,71,71,0,71,0.15,0.85,0.22,0.25
2014-03-24 17:30:00,2,244,71,0.57,2,2,0,2,202,319,32,238,71,71,0,71,0.15,1.20,0.32,0.50
2014-03-24 17:40:00,2,250,71,0.72,2,2,0,2,205,297,32,238,71,71,0,71,0.40,1.35,0.32,0.60
2014-03-24 17:50:00,2,228,71,0.37,2,2,0,2,203,272,20,228,71,72,0,71,0.15,0.65,0.14,0.35
2014-03-24 18:00:00,2,233,72,0.46,2,2,0,2,186,275,24,236,72,72,0,72,0.30,0.55,0.07,0.50
2014-03-24 18:10:00,2,403,71,0.16,2,2,0,2,292,554,83,393,71,72,0,71,0.00,0.30,0.12,0.15
2014-03-24 18:20:00,2,550,72,0.03,2,2,0,2,435,771,90,541,71,77,2,71,0.00,0.05,0.02,0.05
2014-03-24 18:30:00,2,380,73,0.13,2,2,0,2,335,488,48,362,71,77,3,71,0.00,0.45,0.14,0.10
2014-03-24 18:40:00,2,302,74,0.14,2,2,0,2,278,332,15,305,71,78,3,74,0.10,0.20,0.04,0.15
2014-03-24 18:50:00,2,452,71,0.06,2,2,0,2,297,693,117,442,71,71,0,71,0.00,0.15,0.05,0.05
2014-03-24 19:00:00,2,521,71,0.14,2,2,0,2,412,667,85,501,71,71,0,71,0.00,0.30,0.11,0.10
2014-03-24 19:10:00,2,503,71,0.13,2,2,0,2,449,567,40,504,71,71,0,71,0.00,0.45,0.12,0.10
2014-03-24 19:20:00,2,518,71,0.16,2,2,0,2,444,628,58,520,71,71,0,71,0.00,0.30,0.10,0.17
2014-03-24 19:30:00,2,546,71,0.13,2,2,0,2,433,647,70,582,71,71,0,71,0.00,0.45,0.13,0.10
2014-03-24 19:40:00,2,367,71,0.15,2,2,0,2,280,438,56,382,71,71,0,71,0.00,0.70,0.21,0.10
2014-03-24 19:50:00,2,261,71,0.13,2,2,0,2,197,356,52,256,71,71,0,71,0.10,0.35,0.07,0.10
2014-03-24 20:00:00,2,234,71,0.20,2,2,0,2,207,312,33,218,71,72,0,71,0.10,0.40,0.09,0.15
2014-03-24 20:10:00,2,255,74,0.28,2,2,0,2,232,281,17,260,71,77,3,74,0.10,0.60,0.16,0.23
2014-03-24 20:20:00,2,258,71,0.23,2,2,0,2,196,306,26,258,71,72,0,71,0.10,0.45,0.11,0.20
2014-03-24 20:30:00,2,218,71,0.30,2,2,0,2,193,248,15,218,71,72,0,71,0.15,0.65,0.16,0.25
2014-03-24 20:40:00,2,172,71,0.20,2,2,0,2,162,188,9,168,71,71,0,71,0.10,0.55,0.16,0.12
2014-03-24 20:50:00,2,186,71,0.32,2,2,0,2,157,228,18,180,71,71,0,71,0.05,0.80,0.25,0.28
2014-03-24 21:00:00,2,181,71,0.21,2,2,0,2,168,192,8,182,71,71,0,71,0.05,0.55,0.17,0.15
2014-03-24 21:10:00,2,192,71,0.18,2,2,0,2,169,237,23,184,71,71,0,71,0.05,0.95,0.26,0.08
2014-03-24 21:20:00,2,234,71,0.31,2,2,0,2,216,273,16,228,71,72,0,71,0.00,1.10,0.30,0.25
2014-03-24 21:30:00,2,229,71,0.31,2,2,0,2,213,244,8,228,71,72,0,71,0.15,0.50,0.14,0.33
2014-03-24 21:40:00,2,199,71,0.44,2,2,0,2,178,232,18,196,71,71,0,71,0.10,1.35,0.34,0.30
2014-03-24 21:50:00,2,220,71,0.25,2,2,0,2,175,281,36,208,71,71,0,71,0.10,0.65,0.18,0.17
2014-03-24 22:00:00,2,293,72,0.14,2,2,0,2,269,337,18,290,71,77,2,71,0.10,0.20,0.03,0.15
2014-03-24 22:10:00,2,310,68,0.23,2,2,0,2,292,328,9,312,33,77,12,72,0.00,0.55,0.17,0.15
2014-03-24 22:20:00,2,280,72,0.25,2,2,0,2,202,327,41,290,71,72,0,72,0.05,0.60,0.17,0.20
2014-03-24 22:30:00,2,194,71,0.25,2,2,0,2,185,209,8,192,71,71,0,71,0.00,0.55,0.16,0.25
2014-03-24 22:40:00,2,219,71,0.12,2,2,0,2,190,282,29,211,71,72,0,71,0.05,0.30,0.10,0.05
2014-03-24 22:50:00,2,340,38,0.01,2,2,0,2,292,368,25,348,34,71,11,34,0.00,0.10,0.03,0.00
2014-03-24 23:00:00,2,443,45,0.02,2,2,0,2,376,600,80,404,30,78,19,34,0.00,0.10,0.03,0.00
2014-03-24 23:10:00,2,587,71,0.30,2,2,0,2,457,677,73,602,71,71,0,71,0.05,1.60,0.46,0.10
2014-03-24 23:20:00,2,1072,71,0.29,2,2,0,2,538,1474,288,1157,71,71,0,71,0.00,1.00,0.27,0.23
2014-03-24 23:30:00,2,1005,71,0.02,2,2,0,2,831,1269,133,976,71,71,0,71,0.00,0.05,0.02,0.00
2014-03-24 23:40:00,2,1734,71,0.20,2,2,0,2,1209,2643,480,1737,71,71,0,71,0.00,0.65,0.21,0.17
2014-03-24 23:50:00,2,1198,71,0.04,2,2,0,2,963,1505,175,1171,71,71,0,71,0.00,0.40,0.12,0.00
